Home > Weather > Detroit > Past weeks

Flag for U.S.A. Weather for the Past 2 Weeks in Detroit, Michigan, U.S.A.

Now
6 °F

Clear.


Feels Like: -9 °F
Forecast: 3 / 14 °F
Wind: 10 mph from Northwest

Location: Detroit City Airport

Current Time: Feb 13, 2016 at 2:46:06 AM

Latest Report: Feb 13, 2016 at 1:53 AM


Visibility: 10 mi

Pressure: 30.31 "Hg

Humidity: N/A

Dew point: N/A

Location of DetroitLocation

Historic Weather in Detroit — Graph

°F

Detroit Temperature Yesterday

Maximum temperature yesterday: 24 °F (at 1:53 PM)
Minimum temperature yesterday: 9 °F (at 11:53 PM)
Average temperature yesterday: 17 °F

High & Low Weather Summary for the Past Weeks

 TemperatureHumidityPressure
High56 °F (Feb 3, 10:53 AM)96% (Feb 9, 7:53 AM)30.66 "Hg (Feb 9, 7:53 AM)
Low6 °F (Feb 13, 1:53 AM)43% (Jan 29, 3:53 PM)29.46 "Hg (Feb 3, 5:53 AM)
Average32 °F69%29.93 "Hg
* Reported Jan 29 1:53 AM — Feb 13 1:53 AM, Detroit, Weather by CustomWeather, © 2016

Note: Actual official high and low records may vary slightly from our data, if they occured in-between our weather recording intervals... More about our weather records

Advertising

Detroit Weather History for the Previous 24 Hours

 ConditionsComfort  
Time TempWeatherWind HumidityBarometerVisibility
1:53 AM
Sat, Feb 13
6 °FClear.10 mphN/A30.31 "Hg10 mi
12:53 AM7 °FClear.13 mph47%30.29 "Hg10 mi
11:53 PM
Fri, Feb 12
9 °FClear.16 mph45%30.26 "Hg10 mi
10:53 PM10 °FClear.12 mph50%30.22 "Hg10 mi
9:53 PM12 °FClear.14 mph51%30.18 "Hg10 mi
8:53 PM14 °FPartly cloudy.12 mph64%30.13 "Hg10 mi
7:53 PM17 °FPassing clouds.12 mph59%30.09 "Hg10 mi
6:53 PM18 °FPassing clouds.12 mph59%30.06 "Hg10 mi
5:53 PM19 °FScattered clouds.15 mph57%30.02 "Hg8 mi
4:53 PM21 °FPartly sunny.14 mph62%29.99 "Hg4 mi
3:53 PM23 °FMostly cloudy.17 mph63%29.97 "Hg10 mi
3:02 PM22 °FSnow. Mostly cloudy.15 mph82%29.92 "Hg1 mi
1:53 PM24 °FOvercast.16 mph60%30.66 "Hg9 mi
12:53 PM22 °FMore clouds than sun.13 mph68%29.99 "Hg10 mi
12:03 PM21 °FOvercast.15 mph68%29.99 "Hg6 mi
11:53 AM21 °FLight snow. Mostly cloudy.13 mph68%30.02 "Hg4 mi
10:53 AM20 °FOvercast.13 mph62%30.04 "Hg10 mi
9:53 AM19 °FOvercast.16 mph62%30.07 "Hg10 mi
8:53 AM18 °FOvercast.15 mph65%30.08 "Hg10 mi
7:53 AM17 °FOvercast.12 mph64%30.11 "Hg10 mi
6:53 AM16 °FOvercast.12 mph65%30.14 "Hg10 mi
5:53 AM13 °FPassing clouds.8 mph70%30.14 "Hg10 mi
4:53 AM13 °FClear.8 mph70%30.16 "Hg10 mi
3:53 AM13 °FClear.8 mph74%30.18 "Hg10 mi
2:53 AM14 °FClear.5 mph73%30.21 "Hg10 mi
Weather by CustomWeather, © 2016

See weather overviewHow to use our weather pages